Bowen, IL (62316)

5:05 AM CST on February 09, 2016 (GMT -0600)
Chem Gro Inc. | | Change Station
CLOSE
Current Station
Personal Weather Station
Location: Bowen, IL
Elevation: 679 ft
Nearby Weather Stations

Elev 679 ft 40.24 °N, 91.06 °W | Updated 30 seconds ago

Snow
Snow
15.4 °F
Feels Like 15 °F
N
2.2
Wind Variable Wind from North
Gusts 2.2 mph

Today
High -- | Low -- °F
--% Chance of Precip.
Yesterday
High -- | Low -- °F
Precip. -- in
Pressure 29.96 in
Visibility 5.0 miles
Clouds Few 1600 ft
Mostly Cloudy 2300 ft
Overcast 10000 ft
Windchill 15 °F
Dew Point 12 °F
Humidity 87%
Rainfall 0.00 in
Snow Depth Not available.
7:05 AM 5:32 PM
New Moon, 1% visible
METAR KUIN 091054Z AUTO 32017KT 5SM -SN FEW016 BKN023 OVC100 M09/M13 A2992 RMK AO2 SLP144 P0000 T10891128
Pressure 29.96 in
Visibility 5.0 miles
Clouds Few 1600 ft
Mostly Cloudy 2300 ft
Overcast 10000 ft
Windchill 15 °F
Dew Point 12 °F
Humidity 87%
Rainfall 0.00 in
Snow Depth Not available.
7:05 AM 5:32 PM
New Moon, 1% visible
METAR KUIN 091054Z AUTO 32017KT 5SM -SN FEW016 BKN023 OVC100 M09/M13 A2992 RMK AO2 SLP144 P0000 T10891128

10-Day Weather Forecast

Almanac

Astronomy

Feb. 09, 2016 Rise Set
Actual Time
Civil Twilight
Nautical Twilight
Astronomical Twilight
Moon
Length of Visible Light
Length of Day
Tomorrow will be .
, % of the Moon is Illuminated

Today's Extremes

State Highs State Lows

Community

WunderPhotos

Upload Photos

1,891,565 photos uploaded!

WunderBlog® & News

Nearby

Air Quality

  Air Quality AQ Index Pollutant
Not available.

Snow Depth

Station Depth Elevation

Earthquake Activity

City Distance Mag. Time & Date
Minimum magnitude displayed is 2.5.

Coastal Water Temperatures

Place Temperature

Stations

Nearby Weather Stations

Station Location Temp. Windchill Dew Point Humidity Wind Precip. Elev Updated Type
                   

Watches & Warnings

There are currently no watches in effect.